TimeCST,TemperatureF,Dew PointF,Humidity,Sea Level PressureIn,VisibilityMPH,Wind Direction,Wind SpeedMPH,Gust SpeedMPH,PrecipitationIn,Events,Conditions,WindDirDegrees,DateUTC
12:53 AM,57.0,48.9,74,30.30,10.0,SSE,4.6,-,N/A,,Clear,160,2013-02-01 06:53:00
1:53 AM,59.0,50.0,72,30.29,10.0,SSE,3.5,-,N/A,,Clear,150,2013-02-01 07:53:00
2:53 AM,57.9,51.1,78,30.29,10.0,SSE,3.5,-,N/A,,Clear,150,2013-02-01 08:53:00
3:53 AM,55.9,51.1,84,30.30,10.0,SSE,3.5,-,N/A,,Clear,160,2013-02-01 09:53:00
4:53 AM,54.0,48.9,83,30.30,10.0,SSE,3.5,-,N/A,,Clear,150,2013-02-01 10:53:00
5:53 AM,53.1,48.9,86,30.30,10.0,Calm,Calm,-,N/A,,Clear,0,2013-02-01 11:53:00
6:53 AM,50.0,46.9,89,30.31,10.0,Calm,Calm,-,N/A,,Clear,0,2013-02-01 12:53:00
8:53 AM,64.9,52.0,63,30.35,10.0,SSE,3.5,-,N/A,,Clear,150,2013-02-01 14:53:00
9:53 AM,68.0,51.1,55,30.37,10.0,SE,8.1,-,N/A,,Clear,140,2013-02-01 15:53:00
10:53 AM,69.1,48.9,49,30.36,10.0,SSE,9.2,-,N/A,,Clear,150,2013-02-01 16:53:00
11:53 AM,70.0,48.9,47,30.34,10.0,SE,11.5,-,N/A,,Clear,140,2013-02-01 17:53:00
12:53 PM,71.1,48.0,44,30.32,10.0,SE,10.4,-,N/A,,Clear,140,2013-02-01 18:53:00
1:53 PM,70.0,46.0,42,30.28,10.0,SSE,13.8,-,N/A,,Clear,150,2013-02-01 19:53:00
2:53 PM,69.1,46.9,45,30.27,10.0,SE,10.4,-,N/A,,Clear,140,2013-02-01 20:53:00
3:53 PM,69.1,48.0,47,30.25,10.0,ESE,12.7,-,N/A,,Clear,120,2013-02-01 21:53:00
4:53 PM,66.9,45.0,45,30.25,10.0,SE,12.7,-,N/A,,Clear,130,2013-02-01 22:53:00
5:53 PM,64.0,48.0,56,30.24,10.0,ESE,11.5,-,N/A,,Clear,120,2013-02-01 23:53:00
6:53 PM,62.1,51.1,67,30.24,10.0,SE,10.4,-,N/A,,Clear,130,2013-02-02 00:53:00
7:53 PM,62.1,53.1,72,30.25,10.0,SE,9.2,-,N/A,,Clear,130,2013-02-02 01:53:00
8:53 PM,61.0,54.0,78,30.25,10.0,SE,5.8,-,N/A,,Clear,130,2013-02-02 02:53:00
9:53 PM,61.0,55.0,81,30.25,10.0,SE,6.9,-,N/A,,Clear,140,2013-02-02 03:53:00
10:53 PM,60.1,55.0,83,30.25,10.0,SE,4.6,-,N/A,,Clear,130,2013-02-02 04:53:00
11:53 PM,61.0,57.0,87,30.22,10.0,SSE,3.5,-,N/A,,Mostly Cloudy,150,2013-02-02 05:53:00